Weather History for KEDE - December, 2012

Change the Weather History Date:

Sunday, December 2, 2012

  Actual Average Record
Temperature  
Mean Temperature 48 °F -  
Max Temperature 63 °F 59 °F 75 °F (1991)
Min Temperature 34 °F 38 °F 20 °F (1947)
Degree Days  
Heating Degree Days 16    
Moisture  
Dew Point 43 °F    
Average Humidity 82    
Maximum Humidity 99    
Minimum Humidity 54    
Precipitation  
Precipitation 0.00 in - - ()
Sea Level Pressure  
Sea Level Pressure 30.34 in    
Wind  
Wind Speed 0 mph (South)    
Max Wind Speed 9 mph    
Max Gust Speed -    
Visibility 8 miles    
Events      
Averages and records for this station are not official NWS values.
T = Trace of Precipitation, MM = Missing Value Source: NWS Daily Summary

Daily Weather History Graph

Daily Weather History Graph

Search for Another Location

Airport or City:

Trip Planner

Search our weather history database for the weather conditions in past years. The results will help you decide how hot, cold, wet, or windy it might be!

Date:

Astronomy

Dec. 02, 2012 Rise Set
Actual Time 6:59 AM EST 4:51 PM EST
Civil Twilight 6:31 AM EST 5:20 PM EST
Nautical Twilight 5:59 AM EST 5:51 PM EST
Astronomical Twilight 5:28 AM EST 6:22 PM EST
Moon 8:34 PM EST (12/2) 9:50 AM EST (12/2)
Length of Visible Light 10h 48m
Length of Day
9h 52m
Waning Gibbous, 86% of the Moon is Illuminated
Dec 2
Waning Gibbous
Dec 6
Last Quarter
Dec 13
New
Dec 20
First Quarter
Dec 28
Full

Hourly Weather History & Observations

Time (EST) Temp. Dew Point Humidity Pressure Visibility Wind Dir Wind Speed Gust Speed Precip Events Conditions
12:15 AM 38.8 °F 37.2 °F 94% 30.40 in 10.0 mi Calm Calm - N/A   Clear
12:35 AM 38.8 °F 37.8 °F 96% 30.40 in 5.0 mi Calm Calm - N/A   Clear
12:55 AM 36.9 °F 35.8 °F 96% 30.39 in 7.0 mi Calm Calm - N/A   Clear
1:15 AM 37.4 °F 36.1 °F 95% 30.39 in 5.0 mi Calm Calm - N/A   Clear
1:35 AM 37.0 °F 36.0 °F 96% 30.39 in 7.0 mi Calm Calm - N/A   Clear
1:55 AM 37.0 °F 35.8 °F 95% 30.39 in 10.0 mi Calm Calm - N/A   Clear
2:15 AM 36.9 °F 35.6 °F 95% 30.39 in 10.0 mi Calm Calm - N/A   Clear
2:35 AM 36.1 °F 34.7 °F 94% 30.39 in 7.0 mi Calm Calm - N/A   Clear
2:55 AM 35.6 °F 34.3 °F 95% 30.40 in 5.0 mi Calm Calm - N/A   Clear
3:15 AM 36.5 °F 35.1 °F 95% 30.39 in 10.0 mi Calm Calm - N/A   Clear
3:35 AM 36.0 °F 34.7 °F 95% 30.39 in 5.0 mi Calm Calm - N/A   Clear
3:55 AM 36.9 °F 35.8 °F 96% 30.39 in 7.0 mi Calm Calm - N/A   Clear
4:15 AM 35.8 °F 34.9 °F 97% 30.38 in 4.0 mi Calm Calm - N/A   Clear
4:35 AM 36.0 °F 34.9 °F 96% 30.38 in 7.0 mi Calm Calm - N/A   Clear
4:55 AM 35.6 °F 34.2 °F 94% 30.38 in 5.0 mi Calm Calm - N/A   Clear
5:15 AM 36.1 °F 35.1 °F 96% 30.38 in 4.0 mi Calm Calm - N/A   Clear
5:55 AM 36.0 °F 34.9 °F 96% 30.38 in 7.0 mi Calm Calm - N/A   Clear
6:15 AM 36.3 °F 35.1 °F 95% 30.39 in 7.0 mi Calm Calm - N/A   Clear
6:35 AM 34.9 °F 34.0 °F 97% 30.39 in 3.0 mi Calm Calm - N/A   Clear
6:55 AM 36.3 °F 35.4 °F 97% 30.39 in 1.8 mi Calm Calm - N/A   Mist
7:15 AM 35.2 °F 34.3 °F 97% 30.40 in 4.0 mi Calm Calm - N/A   Clear
7:35 AM 36.0 °F 35.4 °F 98% 30.40 in 4.0 mi Calm Calm - N/A   Clear
7:55 AM 36.7 °F 35.8 °F 97% 30.41 in 3.0 mi Calm Calm - N/A   Clear
8:15 AM 43.5 °F 43.2 °F 99% 30.41 in 5.0 mi Calm Calm - N/A   Clear
8:35 AM 47.5 °F 46.2 °F 95% 30.41 in 7.0 mi Calm Calm - N/A   Clear
8:55 AM 50.0 °F 45.1 °F 83% 30.42 in 7.0 mi Calm Calm - N/A   Clear
9:15 AM 51.8 °F 44.6 °F 76% 30.42 in 5.0 mi Calm Calm - N/A   Haze
9:35 AM 53.1 °F 44.6 °F 73% 30.43 in 7.0 mi Calm Calm - N/A   Clear
9:55 AM 54.0 °F 43.7 °F 68% 30.42 in 5.0 mi Calm Calm - N/A   Haze
10:15 AM 55.4 °F 44.1 °F 66% 30.42 in 10.0 mi Calm Calm - N/A   Clear
10:35 AM 57.9 °F 45.3 °F 63% 30.41 in 5.0 mi Calm Calm - N/A   Haze
10:55 AM 59.4 °F 45.5 °F 60% 30.40 in 5.0 mi Calm Calm - N/A   Haze
11:15 AM 61.0 °F 46.2 °F 58% 30.39 in 10.0 mi Calm Calm - N/A   Clear
11:35 AM 61.9 °F 46.4 °F 57% 30.38 in 7.0 mi Calm Calm - N/A   Clear
11:55 AM 63.3 °F 46.4 °F 54% 30.36 in 10.0 mi Calm Calm - N/A   Clear
12:15 PM 63.3 °F 46.8 °F 55% 30.35 in 10.0 mi Calm Calm - N/A   Clear
12:35 PM 63.3 °F 47.3 °F 56% 30.33 in 7.0 mi Calm Calm - N/A   Clear
12:55 PM 63.1 °F 47.5 °F 57% 30.32 in 7.0 mi Calm Calm - N/A   Clear
1:15 PM 63.1 °F 47.8 °F 57% 30.31 in 5.0 mi Calm Calm - N/A   Haze
1:35 PM 63.1 °F 48.4 °F 59% 30.30 in 5.0 mi Calm Calm - N/A   Haze
1:55 PM 63.3 °F 48.4 °F 58% 30.30 in 10.0 mi Calm Calm - N/A   Clear
2:15 PM 63.9 °F 49.3 °F 59% 30.29 in 10.0 mi Calm Calm - N/A   Clear
2:35 PM 63.5 °F 48.7 °F 59% 30.28 in 10.0 mi Calm Calm - N/A   Clear
2:55 PM 62.4 °F 49.3 °F 62% 30.29 in 10.0 mi Calm Calm - N/A   Clear
3:15 PM 61.5 °F 49.8 °F 65% 30.29 in 10.0 mi Calm Calm - N/A   Clear
3:35 PM 61.2 °F 50.2 °F 67% 30.28 in 10.0 mi Calm Calm - N/A   Clear
3:55 PM 61.3 °F 50.2 °F 67% 30.28 in 10.0 mi Calm Calm - N/A   Clear
4:15 PM 60.8 °F 50.0 °F 68% 30.29 in 10.0 mi Calm Calm - N/A   Clear
4:55 PM 58.6 °F 49.1 °F 71% 30.29 in 10.0 mi Calm Calm - N/A   Clear
5:15 PM 57.4 °F 49.3 °F 74% 30.28 in 10.0 mi Calm Calm - N/A   Clear
5:35 PM 56.5 °F 49.3 °F 77% 30.29 in 10.0 mi South 8.1 mph - N/A   Clear
5:55 PM 55.8 °F 48.4 °F 76% 30.29 in 10.0 mi South 8.1 mph - N/A   Clear
6:15 PM 54.7 °F 48.0 °F 78% 30.28 in 10.0 mi South 8.1 mph - N/A   Clear
6:35 PM 54.1 °F 47.8 °F 79% 30.28 in 10.0 mi South 9.2 mph - N/A   Clear
6:55 PM 53.1 °F 47.8 °F 82% 30.28 in 10.0 mi Calm Calm - N/A   Clear
7:15 PM 52.7 °F 47.8 °F 84% 30.28 in 10.0 mi South 8.1 mph - N/A   Clear
7:35 PM 52.7 °F 48.2 °F 85% 30.28 in 10.0 mi Calm Calm - N/A   Clear
7:55 PM 52.0 °F 48.2 °F 87% 30.29 in 10.0 mi South 8.1 mph - N/A   Clear
8:15 PM 52.3 °F 48.4 °F 86% 30.28 in 10.0 mi Calm Calm - N/A   Clear
8:35 PM 50.9 °F 47.8 °F 89% 30.28 in 10.0 mi Calm Calm - N/A   Clear
8:55 PM 50.2 °F 47.7 °F 91% 30.28 in 10.0 mi Calm Calm - N/A   Clear
9:15 PM 49.8 °F 47.5 °F 92% 30.28 in 10.0 mi Calm Calm - N/A   Clear
9:35 PM 48.9 °F 47.1 °F 93% 30.28 in 10.0 mi Calm Calm - N/A   Clear
9:55 PM 49.3 °F 47.5 °F 94% 30.28 in 10.0 mi Calm Calm - N/A   Clear
10:15 PM 50.2 °F 47.8 °F 92% 30.28 in 10.0 mi Calm Calm - N/A   Clear
10:35 PM 50.9 °F 48.4 °F 91% 30.27 in 10.0 mi Calm Calm - N/A   Clear
10:55 PM 50.0 °F 47.8 °F 92% 30.27 in 10.0 mi Calm Calm - N/A   Clear
11:15 PM 49.6 °F 47.7 °F 93% 30.27 in 10.0 mi Calm Calm - N/A   Clear
11:35 PM 48.4 °F 47.1 °F 95% 30.26 in 10.0 mi Calm Calm - N/A   Clear
11:55 PM 49.1 °F 47.1 °F 93% 30.26 in 10.0 mi Calm Calm - N/A   Clear